Theta_e
304 304 306 307 309 311 312 314 315 310 309 310 310 309 309 311 312 312 311 311 310 308
302 302 302 304 305 305 307 307 306 306 305 306 306 305 305 306 307 308 308 309 310 309
301 301 301 301 301 301 303 303 303 302 303 303 303 302 301 302 303 303 303 304 304 304
301 301 300 299 299 299 300 300 299 299 299 299 299 299 299 299 300 299 300 301 299 300
301 300 299 298 298 298 297 298 297 297 296 296 296 296 296 295 296 295 296 297 296 296
299 299 298 297 297 296 296 295 295 294 294 294 294 294 294 294 294 295 295 295 294 294
297 297 297 297 296 295 294 293 293 293 293 293 293 293 292 292 292 293 293 293 292 291
296 295 295 294 293 293 292 292 292 291 291 292 291 291 291 290 290 290 290 289 288 288
292 292 291 291 291 290 290 290 290 289 289 289 289 290 290 289 289 288 287 286 286 285
289 289 289 289 288 287 288 288 288 288 287 287 288 290 289 288 287 286 286 285 284 282
286 286 286 286 286 286 287 286 286 286 286 286 286 289 289 287 286 286 285 285 284 283
284 283 284 283 284 285 285 285 285 285 285 284 285 288 288 286 285 284 284 283 283 282
282 282 281 282 282 283 284 283 283 282 283 283 283 285 286 286 285 283 282 281 281 281
280 279 281 281 282 282 282 282 281 281 282 282 283 283 285 286 284 283 281 279 278 279
Wind_Speed
4 4 5 6 6 5 5 5 5 4 6 7 6 6 6 5 5 5 5 7 5 4
4 5 6 7 6 5 6 5 6 6 7 8 8 7 7 5 6 6 6 8 7 6
6 6 6 6 7 8 7 7 6 7 8 8 8 7 7 6 6 7 6 5 7 6
6 7 7 7 7 8 8 7 8 8 8 8 8 8 7 8 8 8 8 7 7 8
8 7 7 8 8 7 8 7 8 7 8 8 8 7 8 8 8 8 9 8 8 8
6 6 8 8 7 7 8 8 9 9 9 9 8 8 8 9 9 8 9 8 8 8
6 7 8 8 8 8 8 9 9 9 10 9 9 9 9 9 9 8 8 7 6 7
8 8 8 8 8 9 9 9 10 10 10 10 9 7 9 8 8 8 9 6 5 5
6 6 7 7 8 8 8 9 9 10 10 11 9 10 10 9 8 7 7 7 6 4
6 7 7 7 8 8 9 9 10 10 10 12 11 13 11 12 9 8 7 7 5 4
9 9 9 9 8 8 8 9 9 10 10 11 10 14 12 13 11 9 9 8 8 7
10 10 10 10 10 9 9 9 9 9 10 11 11 14 13 13 9 9 8 7 6 9
10 10 11 11 10 9 8 10 8 9 9 11 12 15 17 15 9 9 7 5 6 5
10 11 10 10 9 10 10 9 9 10 9 10 10 11 18 20 12 8 7 6 6 6
Wind_Direction
284 287 295 299 299 300 297 300 314 296 282 283 286 282 278 270 266 280 276 264 260 267
284 284 285 291 294 292 296 295 301 288 279 280 278 276 277 272 273 271 268 271 272 265
296 290 287 292 284 280 280 278 279 277 273 275 276 274 273 274 268 263 261 253 264 262
268 278 274 269 269 270 275 276 273 272 270 270 269 263 260 261 264 262 262 255 247 249
294 294 284 277 279 279 278 279 275 273 271 272 268 268 261 260 258 253 252 246 244 248
299 291 278 281 286 285 280 272 268 267 262 263 264 263 260 260 261 258 260 259 248 249
315 312 313 313 305 293 284 279 273 269 268 266 266 262 259 260 258 260 258 259 265 272
330 323 321 315 308 301 293 285 284 280 274 268 262 260 261 253 255 254 254 243 248 258
320 316 307 303 300 295 289 285 280 274 273 275 269 257 239 237 258 246 251 250 233 220
331 319 313 307 302 298 294 291 283 278 272 270 266 263 246 234 244 247 237 237 236 229
335 327 324 318 309 303 300 296 293 289 283 277 273 268 249 240 239 249 245 214 195 203
328 324 322 316 314 310 304 298 292 288 285 279 279 273 254 242 235 242 249 254 228 183
323 321 317 315 314 310 299 291 290 285 280 278 281 277 272 245 238 226 220 209 218 232
326 320 316 315 314 308 304 299 296 290 289 280 275 274 272 262 248 224 211 186 182 194